DAL2640 KLAX-KSEA

Flight info

Callsign DAL2640
Flight time 2h 15m
Altitude 36000
Route LADYJ4 CSTRO SHIMR LKV HAWKZ8
Aircraft B739/M-SDE2E3FGHIRWXY/LB1

Departure

Time 2026-04-23 16:33
Airport Los Angeles International Airport (KLAX)

Arrival

Time 2026-04-23 18:48
Airport Seattle–Tacoma International Airport (KSEA)
Time Latitude Longitude Altitude Speed Heading
2026-04-23 15:53 33.94599 -118.40650 92 ft 0 kts 262°
2026-04-23 16:25 33.94599 -118.40647 91 ft 3 kts 262°
2026-04-23 16:26 33.94602 -118.40620 92 ft 2 kts 262°
2026-04-23 16:26 33.94601 -118.40592 89 ft 4 kts 302°
2026-04-23 16:26 33.94583 -118.40570 91 ft 4 kts 323°
2026-04-23 16:26 33.94591 -118.40575 90 ft 4 kts 333°
2026-04-23 16:27 33.94617 -118.40582 91 ft 4 kts 352°
2026-04-23 16:27 33.94627 -118.40584 92 ft 0 kts 354°
2026-04-23 16:29 33.94630 -118.40584 94 ft 3 kts 353°
2026-04-23 16:29 33.94651 -118.40586 92 ft 5 kts 356°
2026-04-23 16:29 33.94697 -118.40592 94 ft 7 kts 353°
2026-04-23 16:29 33.94755 -118.40603 94 ft 12 kts 355°
2026-04-23 16:30 33.94842 -118.40594 93 ft 13 kts 25°
2026-04-23 16:30 33.94873 -118.40499 95 ft 14 kts 82°
2026-04-23 16:30 33.94887 -118.40364 93 ft 17 kts 83°
2026-04-23 16:30 33.94901 -118.40229 94 ft 16 kts 83°
2026-04-23 16:31 33.94914 -118.40099 92 ft 15 kts 83°
2026-04-23 16:31 33.94927 -118.39974 92 ft 15 kts 77°
2026-04-23 16:31 33.95001 -118.39910 92 ft 14 kts 355°
2026-04-23 16:31 33.95036 -118.40013 96 ft 24 kts 262°
2026-04-23 16:32 33.94986 -118.40487 95 ft 90 kts 263°
2026-04-23 16:32 33.94886 -118.41474 96 ft 145 kts 263°
2026-04-23 16:32 33.94759 -118.42748 193 ft 177 kts 263°
2026-04-23 16:32 33.94642 -118.43911 582 ft 184 kts 262°
2026-04-23 16:33 33.94484 -118.45453 1266 ft 182 kts 263°
2026-04-23 16:33 33.94337 -118.46985 1959 ft 190 kts 265°
2026-04-23 16:33 33.94347 -118.48636 2489 ft 208 kts 272°
2026-04-23 16:33 33.94301 -118.50462 2716 ft 230 kts 268°
2026-04-23 16:34 33.94147 -118.52432 2964 ft 252 kts 265°
2026-04-23 16:34 33.93956 -118.54622 3491 ft 264 kts 266°
2026-04-23 16:34 33.93774 -118.56796 4284 ft 266 kts 266°
2026-04-23 16:34 33.93592 -118.59045 5005 ft 272 kts 266°
2026-04-23 16:35 33.93476 -118.61304 5843 ft 271 kts 277°
2026-04-23 16:35 33.94097 -118.63410 6605 ft 268 kts 308°
2026-04-23 16:35 33.95444 -118.64955 7304 ft 269 kts 327°
2026-04-23 16:35 33.97034 -118.66147 8073 ft 270 kts 328°
2026-04-23 16:36 33.98664 -118.67266 8850 ft 272 kts 337°
2026-04-23 16:36 34.00532 -118.67702 9601 ft 278 kts 356°
2026-04-23 16:36 34.02481 -118.67597 10264 ft 284 kts 359°
2026-04-23 16:36 34.03772 -118.67498 10412 ft 298 kts 359°
2026-04-23 16:37 34.05464 -118.67373 10558 ft 316 kts 359°
2026-04-23 16:37 34.07581 -118.67223 10712 ft 336 kts
2026-04-23 16:37 34.09969 -118.67152 11019 ft 348 kts 353°
2026-04-23 16:37 34.12403 -118.67356 11600 ft 352 kts 351°
2026-04-23 16:38 34.14852 -118.67634 12269 ft 354 kts 350°
2026-04-23 16:38 34.17311 -118.67920 12951 ft 356 kts 350°
2026-04-23 16:38 34.19787 -118.68195 13602 ft 360 kts 349°
2026-04-23 16:38 34.22295 -118.68458 14160 ft 364 kts 349°
2026-04-23 16:39 34.24832 -118.68712 14738 ft 367 kts 349°
2026-04-23 16:39 34.27384 -118.68959 15294 ft 370 kts 349°
2026-04-23 16:39 34.29968 -118.69205 15825 ft 374 kts 349°
2026-04-23 16:39 34.32579 -118.69450 16373 ft 378 kts 349°
2026-04-23 16:40 34.35185 -118.69694 16877 ft 381 kts 349°
2026-04-23 16:40 34.37870 -118.69946 17394 ft 385 kts 349°
2026-04-23 16:40 34.40562 -118.70197 17926 ft 389 kts 349°
2026-04-23 16:40 34.43274 -118.70450 18438 ft 392 kts 349°
2026-04-23 16:41 34.45997 -118.70705 18895 ft 395 kts 349°
2026-04-23 16:41 34.48718 -118.70959 19332 ft 398 kts 349°
2026-04-23 16:41 34.51487 -118.71219 19799 ft 401 kts 349°
2026-04-23 16:41 34.54274 -118.71480 20260 ft 404 kts 349°
2026-04-23 16:42 34.57099 -118.71745 20728 ft 407 kts 349°
2026-04-23 16:42 34.59931 -118.72011 21141 ft 411 kts 349°
2026-04-23 16:42 34.62790 -118.72279 21652 ft 412 kts 349°
2026-04-23 16:42 34.65648 -118.72547 22124 ft 413 kts 349°
2026-04-23 16:43 34.68524 -118.72821 22527 ft 416 kts 348°
2026-04-23 16:43 34.71366 -118.73415 22913 ft 412 kts 338°
2026-04-23 16:43 34.74056 -118.74549 23313 ft 408 kts 329°
2026-04-23 16:43 34.76551 -118.76155 23746 ft 406 kts 324°
2026-04-23 16:44 34.79012 -118.77865 24097 ft 408 kts 324°
2026-04-23 16:44 34.81475 -118.79592 24414 ft 411 kts 324°
2026-04-23 16:44 34.83964 -118.81331 24768 ft 413 kts 324°
2026-04-23 16:44 34.86464 -118.83070 25132 ft 415 kts 324°
2026-04-23 16:45 34.88984 -118.84814 25479 ft 418 kts 324°
2026-04-23 16:45 34.91519 -118.86563 25809 ft 420 kts 324°
2026-04-23 16:45 34.94070 -118.88321 26140 ft 423 kts 325°
2026-04-23 16:45 34.96643 -118.90093 26483 ft 424 kts 325°
2026-04-23 16:46 34.99213 -118.91864 26799 ft 427 kts 325°
2026-04-23 16:46 35.01791 -118.93641 27169 ft 428 kts 324°
2026-04-23 16:46 35.04397 -118.95439 27531 ft 429 kts 324°
2026-04-23 16:46 35.07002 -118.97238 27831 ft 431 kts 324°
2026-04-23 16:47 35.09621 -118.99049 28098 ft 434 kts 324°
2026-04-23 16:47 35.12261 -119.00876 28389 ft 436 kts 324°
2026-04-23 16:47 35.14872 -119.02684 28688 ft 438 kts 324°
2026-04-23 16:47 35.17526 -119.04522 28995 ft 440 kts 324°
2026-04-23 16:48 35.20242 -119.06405 29371 ft 441 kts 324°
2026-04-23 16:48 35.22845 -119.08208 29882 ft 438 kts 324°
2026-04-23 16:48 35.25503 -119.10052 30385 ft 435 kts 324°
2026-04-23 16:48 35.28125 -119.11873 30727 ft 434 kts 324°
2026-04-23 16:49 35.29865 -119.13084 30927 ft 434 kts 324°
2026-04-23 16:49 35.33371 -119.15526 31359 ft 433 kts 324°
2026-04-23 16:49 35.35991 -119.17351 31730 ft 431 kts 324°
2026-04-23 16:49 35.38588 -119.19161 32108 ft 430 kts 324°
2026-04-23 16:50 35.41187 -119.20973 32501 ft 427 kts 324°
2026-04-23 16:50 35.43777 -119.22724 32853 ft 429 kts 328°
2026-04-23 16:50 35.46566 -119.24112 33127 ft 436 kts 336°
2026-04-23 16:50 35.49527 -119.25044 33405 ft 439 kts 339°
2026-04-23 16:51 35.52492 -119.25902 33691 ft 439 kts 340°
2026-04-23 16:51 35.55475 -119.26755 33969 ft 439 kts 340°
2026-04-23 16:51 35.58444 -119.27610 34294 ft 437 kts 339°
2026-04-23 16:51 35.61392 -119.28468 34607 ft 434 kts 339°
2026-04-23 16:52 35.64327 -119.29332 34874 ft 433 kts 339°
2026-04-23 16:52 35.67252 -119.30202 35048 ft 434 kts 339°
2026-04-23 16:52 35.70159 -119.31073 35214 ft 434 kts 339°
2026-04-23 16:52 35.73119 -119.31962 35434 ft 434 kts 338°
2026-04-23 16:53 35.76019 -119.32832 35670 ft 432 kts 338°
2026-04-23 16:53 35.78966 -119.33718 35904 ft 432 kts 338°
2026-04-23 16:53 35.81860 -119.34588 36108 ft 431 kts 338°
2026-04-23 16:53 35.84795 -119.35472 36188 ft 433 kts 338°
2026-04-23 16:54 35.90618 -119.37228 36182 ft 432 kts 338°
2026-04-23 16:54 35.96439 -119.38982 36192 ft 429 kts 338°
2026-04-23 16:55 36.02232 -119.40731 36193 ft 428 kts 338°
2026-04-23 16:55 36.08007 -119.42478 36190 ft 426 kts 338°
2026-04-23 16:56 36.13748 -119.44219 36187 ft 425 kts 338°
2026-04-23 16:56 36.19507 -119.45967 36206 ft 425 kts 337°
2026-04-23 16:57 36.25261 -119.47718 36191 ft 426 kts 337°
2026-04-23 16:57 36.31022 -119.49473 36190 ft 427 kts 337°
2026-04-23 16:58 36.36789 -119.51231 36196 ft 428 kts 337°
2026-04-23 16:58 36.42598 -119.53006 36191 ft 430 kts 337°
2026-04-23 16:59 36.48409 -119.54782 36179 ft 431 kts 337°
2026-04-23 16:59 36.54245 -119.56569 36191 ft 431 kts 337°
2026-04-23 17:00 36.60030 -119.58342 36201 ft 431 kts 337°
2026-04-23 17:00 36.65889 -119.60142 36185 ft 431 kts 337°
2026-04-23 17:01 36.71668 -119.61920 36183 ft 430 kts 337°
2026-04-23 17:01 36.77482 -119.63711 36175 ft 430 kts 337°
2026-04-23 17:02 36.83271 -119.65498 36174 ft 429 kts 337°
2026-04-23 17:02 36.89060 -119.67288 36175 ft 428 kts 337°
2026-04-23 17:03 36.94829 -119.69074 36176 ft 427 kts 337°
2026-04-23 17:03 37.00651 -119.70880 36181 ft 428 kts 336°
2026-04-23 17:04 37.06382 -119.72661 36178 ft 427 kts 336°
2026-04-23 17:04 37.12146 -119.74454 36181 ft 427 kts 336°
2026-04-23 17:05 37.17910 -119.76250 36196 ft 427 kts 336°
2026-04-23 17:05 37.23688 -119.78053 36173 ft 427 kts 336°
2026-04-23 17:06 37.29448 -119.79853 36160 ft 427 kts 336°
2026-04-23 17:06 37.35203 -119.81655 36162 ft 426 kts 336°
2026-04-23 17:07 37.40962 -119.83461 36151 ft 426 kts 336°
2026-04-23 17:07 37.46716 -119.85268 36158 ft 426 kts 336°
2026-04-23 17:08 37.52448 -119.87071 36154 ft 425 kts 336°
2026-04-23 17:08 37.58199 -119.88883 36154 ft 425 kts 336°
2026-04-23 17:09 37.63915 -119.90687 36162 ft 425 kts 336°
2026-04-23 17:09 37.69673 -119.92507 36145 ft 425 kts 336°
2026-04-23 17:10 37.75404 -119.94321 36171 ft 425 kts 337°
2026-04-23 17:10 37.81145 -119.96141 36160 ft 424 kts 337°
2026-04-23 17:11 37.86858 -119.97955 36147 ft 424 kts 337°
2026-04-23 17:11 37.92580 -119.99775 36140 ft 423 kts 337°
2026-04-23 17:12 37.98292 -120.01596 36145 ft 423 kts 337°
2026-04-23 17:12 38.03953 -120.03402 36142 ft 422 kts 337°
2026-04-23 17:13 38.09656 -120.05225 36142 ft 422 kts 337°
2026-04-23 17:13 38.15339 -120.07046 36139 ft 422 kts 337°
2026-04-23 17:14 38.21035 -120.08872 36124 ft 422 kts 337°
2026-04-23 17:14 38.26888 -120.10049 36156 ft 432 kts 347°
2026-04-23 17:15 38.32904 -120.10548 36151 ft 433 kts 348°
2026-04-23 17:15 38.38910 -120.11042 36140 ft 433 kts 348°
2026-04-23 17:16 38.44934 -120.11568 36124 ft 433 kts 347°
2026-04-23 17:16 38.50929 -120.12110 36136 ft 433 kts 347°
2026-04-23 17:17 38.56919 -120.12660 36152 ft 434 kts 348°
2026-04-23 17:17 38.62988 -120.13217 36152 ft 435 kts 348°
2026-04-23 17:18 38.71926 -120.14037 36159 ft 435 kts 348°
2026-04-23 17:19 38.77965 -120.14592 36157 ft 435 kts 348°
2026-04-23 17:19 38.84011 -120.15149 36157 ft 435 kts 348°
2026-04-23 17:20 38.90046 -120.15705 36186 ft 434 kts 348°
2026-04-23 17:21 39.01143 -120.16732 36171 ft 435 kts 348°
2026-04-23 17:21 39.10176 -120.17569 36226 ft 434 kts 348°
2026-04-23 17:22 39.19174 -120.18405 36224 ft 433 kts 348°
2026-04-23 17:23 39.28181 -120.19245 36225 ft 432 kts 348°
2026-04-23 17:24 39.37189 -120.20087 36230 ft 432 kts 349°
2026-04-23 17:24 39.46177 -120.20929 36174 ft 431 kts 349°
2026-04-23 17:25 39.55139 -120.21772 36179 ft 431 kts 349°
2026-04-23 17:26 39.67097 -120.22899 36181 ft 431 kts 349°
2026-04-23 17:27 39.76087 -120.23749 36190 ft 432 kts 349°
2026-04-23 17:27 39.82098 -120.24319 36182 ft 433 kts 349°
2026-04-23 17:28 39.88106 -120.24889 36194 ft 434 kts 350°
2026-04-23 17:28 39.94136 -120.25463 36188 ft 435 kts 350°
2026-04-23 17:29 40.00186 -120.26039 36188 ft 436 kts 350°
2026-04-23 17:30 40.09265 -120.26905 36195 ft 437 kts 350°
2026-04-23 17:30 40.18398 -120.27779 36198 ft 439 kts 350°
2026-04-23 17:31 40.24486 -120.28363 36215 ft 439 kts 351°
2026-04-23 17:31 40.30591 -120.28949 36211 ft 440 kts 351°
2026-04-23 17:32 40.36694 -120.29536 36210 ft 440 kts 351°
2026-04-23 17:32 40.42797 -120.30125 36237 ft 439 kts 351°
2026-04-23 17:33 40.48892 -120.30714 36217 ft 439 kts 351°
2026-04-23 17:33 40.54952 -120.31300 36205 ft 439 kts 351°
2026-04-23 17:34 40.61034 -120.31889 36208 ft 438 kts 351°
2026-04-23 17:35 40.70154 -120.32775 36197 ft 437 kts 351°
2026-04-23 17:35 40.79252 -120.33662 36208 ft 437 kts 351°
2026-04-23 17:36 40.85307 -120.34254 36207 ft 437 kts 351°
2026-04-23 17:36 40.91363 -120.34846 36207 ft 436 kts 351°
2026-04-23 17:37 40.97413 -120.35440 36211 ft 436 kts 351°
2026-04-23 17:38 41.06490 -120.36332 36211 ft 436 kts 351°
2026-04-23 17:38 41.12542 -120.36928 36223 ft 437 kts 351°
2026-04-23 17:39 41.18625 -120.37529 36227 ft 438 kts 351°
2026-04-23 17:39 41.24701 -120.38129 36224 ft 439 kts 351°
2026-04-23 17:40 41.30839 -120.38737 36217 ft 439 kts 351°
2026-04-23 17:40 41.36900 -120.39338 36230 ft 439 kts 351°
2026-04-23 17:41 41.43039 -120.39948 36219 ft 439 kts 351°
2026-04-23 17:41 41.52137 -120.40855 36222 ft 439 kts 351°
2026-04-23 17:42 41.61266 -120.41767 36229 ft 438 kts 351°
2026-04-23 17:43 41.67355 -120.42376 36236 ft 437 kts 351°
2026-04-23 17:43 41.73416 -120.42984 36240 ft 436 kts 351°
2026-04-23 17:44 41.79468 -120.43593 36248 ft 435 kts 351°
2026-04-23 17:44 41.88513 -120.44505 36236 ft 434 kts 351°
2026-04-23 17:45 41.97540 -120.45417 36233 ft 433 kts 351°
2026-04-23 17:46 42.06536 -120.46329 36223 ft 432 kts 351°
2026-04-23 17:46 42.12524 -120.46937 36221 ft 431 kts 352°
2026-04-23 17:47 42.18513 -120.47547 36236 ft 431 kts 352°
2026-04-23 17:48 42.27480 -120.48462 36216 ft 431 kts 352°
2026-04-23 17:48 42.33467 -120.49075 36211 ft 431 kts 352°
2026-04-23 17:49 42.39434 -120.49686 36210 ft 430 kts 352°
2026-04-23 17:49 42.45404 -120.50299 36214 ft 430 kts 352°
2026-04-23 17:50 42.51234 -120.51668 36202 ft 420 kts 333°
2026-04-23 17:50 42.59197 -120.56630 36222 ft 421 kts 333°
2026-04-23 17:51 42.64546 -120.59909 36212 ft 422 kts 333°
2026-04-23 17:52 42.72591 -120.64803 36205 ft 423 kts 334°
2026-04-23 17:52 42.80664 -120.69716 36203 ft 424 kts 334°
2026-04-23 17:53 42.88741 -120.74647 36201 ft 424 kts 334°
2026-04-23 17:54 42.94081 -120.77915 36204 ft 423 kts 334°
2026-04-23 17:54 43.02145 -120.82863 36206 ft 424 kts 334°
2026-04-23 17:55 43.10211 -120.87827 36195 ft 424 kts 335°
2026-04-23 17:56 43.15603 -120.91153 36198 ft 424 kts 335°
2026-04-23 17:56 43.23653 -120.96131 36189 ft 424 kts 335°
2026-04-23 17:57 43.29032 -120.99464 36210 ft 424 kts 335°
2026-04-23 17:58 43.37101 -121.04478 36191 ft 424 kts 335°
2026-04-23 17:58 43.42470 -121.07823 36188 ft 424 kts 335°
2026-04-23 17:59 43.47849 -121.11180 36186 ft 424 kts 335°
2026-04-23 17:59 43.53210 -121.14532 36185 ft 423 kts 335°
2026-04-23 18:00 43.58576 -121.17894 36192 ft 423 kts 335°
2026-04-23 18:00 43.63925 -121.21252 36190 ft 422 kts 335°
2026-04-23 18:01 43.69273 -121.24617 36182 ft 422 kts 335°
2026-04-23 18:01 43.74616 -121.27984 36189 ft 422 kts 336°
2026-04-23 18:02 43.79054 -121.30786 36193 ft 422 kts 336°
2026-04-23 18:02 43.85291 -121.34730 36186 ft 421 kts 336°
2026-04-23 18:03 43.90620 -121.38107 36180 ft 421 kts 336°
2026-04-23 18:03 43.95947 -121.41491 36184 ft 420 kts 336°
2026-04-23 18:04 44.00361 -121.44299 36178 ft 420 kts 336°
2026-04-23 18:04 44.05670 -121.47683 36193 ft 419 kts 336°
2026-04-23 18:05 44.10959 -121.51062 36199 ft 418 kts 336°
2026-04-23 18:05 44.16233 -121.54438 36189 ft 416 kts 336°
2026-04-23 18:06 44.21487 -121.57806 36189 ft 415 kts 336°
2026-04-23 18:06 44.26719 -121.61168 36200 ft 413 kts 336°
2026-04-23 18:07 44.31925 -121.64519 36210 ft 412 kts 336°
2026-04-23 18:07 44.37116 -121.67868 36212 ft 411 kts 336°
2026-04-23 18:08 44.42299 -121.71217 36210 ft 410 kts 336°
2026-04-23 18:08 44.47483 -121.74574 36208 ft 410 kts 336°
2026-04-23 18:09 44.52662 -121.77934 36212 ft 411 kts 336°
2026-04-23 18:09 44.57835 -121.81297 36219 ft 411 kts 336°
2026-04-23 18:10 44.63045 -121.84691 36228 ft 413 kts 336°
2026-04-23 18:10 44.68226 -121.88072 36245 ft 414 kts 336°
2026-04-23 18:11 44.73456 -121.91493 36242 ft 415 kts 336°
2026-04-23 18:11 44.78691 -121.94923 36262 ft 416 kts 336°
2026-04-23 18:12 44.83929 -121.98363 36253 ft 415 kts 336°
2026-04-23 18:12 44.89155 -122.01802 36246 ft 414 kts 336°
2026-04-23 18:13 44.94360 -122.05234 36261 ft 412 kts 336°
2026-04-23 18:13 44.99557 -122.08667 36270 ft 411 kts 336°
2026-04-23 18:14 45.04718 -122.12083 36276 ft 409 kts 336°
2026-04-23 18:14 45.09870 -122.15501 36281 ft 409 kts 336°
2026-04-23 18:15 45.15020 -122.18923 36281 ft 408 kts 336°
2026-04-23 18:15 45.20169 -122.22352 36282 ft 409 kts 336°
2026-04-23 18:16 45.25327 -122.25794 36288 ft 410 kts 336°
2026-04-23 18:16 45.30495 -122.29249 36289 ft 411 kts 336°
2026-04-23 18:17 45.38276 -122.34464 36292 ft 413 kts 336°
2026-04-23 18:17 45.43475 -122.37958 36298 ft 414 kts 336°
2026-04-23 18:18 45.47187 -122.40457 36293 ft 414 kts 336°
2026-04-23 18:18 45.52396 -122.43970 36296 ft 414 kts 336°
2026-04-23 18:19 45.57610 -122.47495 36292 ft 415 kts 335°
2026-04-23 18:19 45.62783 -122.50998 36296 ft 414 kts 336°
2026-04-23 18:20 45.68018 -122.54551 36311 ft 413 kts 336°
2026-04-23 18:20 45.73201 -122.58075 36293 ft 412 kts 336°
2026-04-23 18:21 45.75824 -122.59548 36266 ft 410 kts 349°
2026-04-23 18:21 45.78633 -122.60193 36325 ft 408 kts 351°
2026-04-23 18:21 45.84246 -122.61490 36295 ft 408 kts 351°
2026-04-23 18:22 45.89884 -122.62878 36290 ft 408 kts 350°
2026-04-23 18:22 45.95435 -122.64260 36297 ft 408 kts 350°
2026-04-23 18:23 45.97328 -122.64731 36129 ft 411 kts 350°
2026-04-23 18:23 46.03962 -122.66383 34601 ft 416 kts 351°
2026-04-23 18:24 46.09650 -122.67800 33017 ft 411 kts 351°
2026-04-23 18:24 46.12465 -122.68423 32279 ft 406 kts 353°
2026-04-23 18:24 46.15249 -122.68961 31466 ft 403 kts 353°
2026-04-23 18:25 46.20805 -122.70007 29750 ft 405 kts 353°
2026-04-23 18:25 46.23590 -122.70547 29156 ft 399 kts 352°
2026-04-23 18:25 46.26333 -122.71087 28510 ft 396 kts 352°
2026-04-23 18:25 46.29045 -122.71626 27905 ft 392 kts 352°
2026-04-23 18:26 46.31728 -122.72158 27330 ft 388 kts 352°
2026-04-23 18:26 46.34404 -122.72500 26717 ft 386 kts 356°
2026-04-23 18:26 46.37075 -122.72608 26145 ft 383 kts 358°
2026-04-23 18:26 46.39737 -122.72646 25570 ft 383 kts 358°
2026-04-23 18:27 46.42424 -122.72683 24991 ft 387 kts 358°
2026-04-23 18:27 46.45131 -122.72737 24373 ft 391 kts 358°
2026-04-23 18:27 46.47857 -122.72808 23756 ft 392 kts 357°
2026-04-23 18:27 46.50585 -122.72893 23110 ft 391 kts 357°
2026-04-23 18:28 46.53292 -122.72985 22464 ft 388 kts 356°
2026-04-23 18:28 46.55967 -122.73079 21865 ft 383 kts 356°
2026-04-23 18:28 46.58627 -122.73174 21276 ft 379 kts 356°
2026-04-23 18:28 46.61216 -122.73268 20698 ft 376 kts 356°
2026-04-23 18:29 46.63855 -122.73364 20130 ft 373 kts 356°
2026-04-23 18:29 46.66434 -122.73458 19568 ft 370 kts 356°
2026-04-23 18:29 46.68993 -122.73551 19013 ft 368 kts 356°
2026-04-23 18:29 46.71541 -122.73644 18632 ft 361 kts 356°
2026-04-23 18:30 46.74021 -122.73732 18207 ft 355 kts 356°
2026-04-23 18:30 46.76451 -122.73776 17982 ft 345 kts
2026-04-23 18:30 46.78759 -122.72964 17742 ft 341 kts 18°
2026-04-23 18:30 46.80830 -122.71235 17253 ft 345 kts 33°
2026-04-23 18:31 46.82687 -122.69038 16854 ft 343 kts 35°
2026-04-23 18:31 46.84509 -122.66820 16432 ft 341 kts 34°
2026-04-23 18:31 46.86347 -122.64636 15990 ft 338 kts 33°
2026-04-23 18:31 46.88192 -122.62539 15566 ft 335 kts 32°
2026-04-23 18:32 46.90022 -122.60470 15285 ft 328 kts 32°
2026-04-23 18:32 46.91794 -122.58454 15128 ft 318 kts 32°
2026-04-23 18:32 46.93529 -122.56535 14984 ft 306 kts 27°
2026-04-23 18:32 46.95437 -122.55353 14678 ft 294 kts 11°
2026-04-23 18:33 46.97371 -122.54554 14383 ft 290 kts 11°
2026-04-23 18:33 46.99331 -122.53742 14081 ft 288 kts 12°
2026-04-23 18:33 47.01239 -122.52935 13744 ft 285 kts 12°
2026-04-23 18:33 47.03106 -122.52129 13432 ft 282 kts 12°
2026-04-23 18:34 47.04978 -122.51314 13125 ft 279 kts 12°
2026-04-23 18:34 47.06830 -122.50505 12844 ft 276 kts 12°
2026-04-23 18:34 47.08673 -122.49789 12543 ft 271 kts
2026-04-23 18:34 47.10526 -122.49441 12251 ft 267 kts
2026-04-23 18:35 47.12362 -122.49162 11971 ft 265 kts
2026-04-23 18:35 47.14198 -122.48864 11707 ft 265 kts
2026-04-23 18:35 47.16028 -122.48546 11428 ft 266 kts
2026-04-23 18:35 47.17880 -122.48214 11148 ft 269 kts
2026-04-23 18:36 47.19737 -122.47887 10866 ft 270 kts
2026-04-23 18:36 47.21599 -122.47599 10575 ft 271 kts
2026-04-23 18:36 47.23484 -122.47318 10306 ft 271 kts
2026-04-23 18:36 47.25353 -122.47037 9989 ft 269 kts
2026-04-23 18:37 47.27172 -122.46761 9932 ft 256 kts
2026-04-23 18:37 47.28974 -122.46488 9470 ft 260 kts
2026-04-23 18:37 47.30770 -122.46214 9131 ft 260 kts
2026-04-23 18:37 47.32549 -122.45941 8918 ft 255 kts
2026-04-23 18:38 47.34316 -122.45671 8597 ft 255 kts
2026-04-23 18:38 47.36080 -122.45465 8308 ft 254 kts 360°
2026-04-23 18:38 47.37840 -122.45464 8040 ft 252 kts 358°
2026-04-23 18:38 47.39594 -122.45489 7762 ft 251 kts 358°
2026-04-23 18:39 47.41322 -122.45510 7519 ft 250 kts 358°
2026-04-23 18:39 47.43034 -122.45523 7244 ft 249 kts 358°
2026-04-23 18:39 47.44770 -122.45530 6980 ft 248 kts 359°
2026-04-23 18:39 47.46498 -122.45533 6696 ft 248 kts 359°
2026-04-23 18:40 47.48248 -122.45535 6422 ft 248 kts 359°
2026-04-23 18:40 47.49944 -122.45536 6152 ft 247 kts 359°
2026-04-23 18:40 47.51652 -122.45547 6029 ft 240 kts 358°
2026-04-23 18:40 47.53282 -122.45613 6004 ft 228 kts 357°
2026-04-23 18:41 47.54820 -122.45660 6011 ft 219 kts 358°
2026-04-23 18:41 47.56334 -122.45697 5981 ft 215 kts 358°
2026-04-23 18:41 47.57820 -122.45732 5754 ft 212 kts 358°
2026-04-23 18:41 47.59308 -122.45769 5380 ft 212 kts 358°
2026-04-23 18:42 47.60774 -122.45803 4927 ft 212 kts 358°
2026-04-23 18:42 47.62261 -122.45776 4429 ft 214 kts
2026-04-23 18:42 47.63583 -122.44831 4067 ft 212 kts 45°
2026-04-23 18:42 47.64217 -122.42988 3988 ft 197 kts 83°
2026-04-23 18:43 47.64100 -122.40968 4019 ft 199 kts 99°
2026-04-23 18:43 47.63878 -122.38925 4000 ft 199 kts 99°
2026-04-23 18:43 47.63654 -122.36923 3983 ft 195 kts 99°
2026-04-23 18:43 47.63433 -122.34947 3997 ft 195 kts 99°
2026-04-23 18:44 47.63086 -122.33021 3970 ft 196 kts 121°
2026-04-23 18:44 47.62034 -122.31731 3505 ft 202 kts 169°
2026-04-23 18:44 47.60703 -122.31697 3314 ft 188 kts 184°
2026-04-23 18:44 47.59410 -122.31697 3065 ft 182 kts 182°
2026-04-23 18:45 47.58177 -122.31693 2822 ft 176 kts 182°
2026-04-23 18:45 47.56979 -122.31700 2580 ft 164 kts 182°
2026-04-23 18:45 47.55879 -122.31710 2367 ft 153 kts 182°
2026-04-23 18:45 47.54944 -122.31717 2161 ft 142 kts 182°
2026-04-23 18:46 47.53942 -122.31727 1992 ft 142 kts 182°
2026-04-23 18:46 47.53048 -122.31732 1812 ft 146 kts 181°
2026-04-23 18:46 47.52077 -122.31736 1602 ft 149 kts 182°
2026-04-23 18:46 47.51051 -122.31752 1374 ft 148 kts 181°
2026-04-23 18:47 47.50021 -122.31758 1165 ft 149 kts 180°
2026-04-23 18:47 47.48984 -122.31765 985 ft 149 kts 181°
2026-04-23 18:47 47.47961 -122.31773 785 ft 146 kts 182°
2026-04-23 18:47 47.46953 -122.31787 565 ft 142 kts 182°
2026-04-23 18:48 47.45972 -122.31792 418 ft 137 kts 182°
2026-04-23 18:48 47.45130 -122.31794 394 ft 102 kts 179°
2026-04-23 18:48 47.44585 -122.31647 374 ft 53 kts 165°
2026-04-23 18:48 47.44459 -122.31594 374 ft 13 kts 163°
2026-04-23 18:49 47.44376 -122.31551 374 ft 11 kts 154°
2026-04-23 18:49 47.44313 -122.31496 376 ft 10 kts 143°
2026-04-23 18:49 47.44260 -122.31405 378 ft 16 kts 119°
2026-04-23 18:49 47.44214 -122.31244 381 ft 17 kts 114°
2026-04-23 18:50 47.44195 -122.31191 382 ft 17 kts 121°
2026-04-23 18:50 47.44002 -122.30968 379 ft 21 kts 148°
2026-04-23 18:50 47.43912 -122.30824 379 ft 19 kts 108°
2026-04-23 18:50 47.43937 -122.30654 380 ft 14 kts 39°
2026-04-23 18:51 47.43983 -122.30556 383 ft 12 kts 77°
2026-04-23 18:51 47.43990 -122.30455 384 ft 8 kts 87°
2026-04-23 18:51 47.43996 -122.30375 385 ft 10 kts 79°
2026-04-23 18:51 47.44040 -122.30272 387 ft 13 kts 38°
2026-04-23 18:52 47.44122 -122.30243 389 ft 12 kts 356°
2026-04-23 18:52 47.44165 -122.30248 390 ft 6 kts 355°
2026-04-23 18:52 47.44192 -122.30250 391 ft 4 kts
2026-04-23 18:52 47.44205 -122.30237 391 ft 2 kts 38°
2026-04-23 18:53 47.44210 -122.30231 391 ft 0 kts 38°
2026-04-23 18:53 47.44214 -122.30227 392 ft 1 kts 38°